AirNav   ATP
 
 1121 users online  

NJ89 Southern Ocean Medical Center Heliport
Manahawkin, New Jersey, USA

GOING TO MANAHAWKIN?


FAA INFORMATION EFFECTIVE 21 JUNE 2018

Location

FAA Identifier: NJ89
Lat/Long: 39-43-15.2000N / 074-16-59.1500W
39-43.253333N / 074-16.985833W
39.7208889 / -74.2830972
(estimated)
Elevation: 55 ft. / 17 m (estimated)
Variation: 12W (1985)
From city: 1 mile W of MANAHAWKIN, NJ
Time zone: UTC -4 (UTC -5 during Standard Time)
Zip code: 08050

Heliport Operations

Heliport use: Private use, MEDICAL USE.
Activation date: 03/1974
Control tower: no
ARTCC: WASHINGTON CENTER
FSS: MILLVILLE FLIGHT SERVICE STATION
Attendance: UNATNDD
Wind indicator: lighted
Segmented circle: no
Lights: FOR PERIMETER LGTS CALL 609-597-6011.

Heliport Communications

WX AWOS-3PT at MJX (12 nm N): 119.875 (732-797-2542)

Nearby radio navigation aids

VOR radial/distance  VOR name  Freq  Var
CYNr140/9.0COYLE VORTAC113.4010W
ACYr050/20.9ATLANTIC CITY VORTAC108.6010W
GXUr152/22.5MC GUIRE VORTAC110.6012W
RBVr171/30.5ROBBINSVILLE VORTAC113.8010W
VCNr081/33.5CEDAR LAKE VOR/DME115.2010W
COLr200/35.9COLTS NECK VOR/DME115.4011W
PNEr133/(39.8)NORTH PHILADELPHIA VOR112.0010W

 
NDB name  Hdg/Dist  Freq  Var  ID
LAKEHURST184/19.639611WNEL -. . .-..

Heliport Services

Airframe service: NONE
Powerplant service: NONE

Runway Information

Helipad H1

Dimensions: 75 x 75 ft. / 23 x 23 m
Surface: asphalt
Runway edge lights: PERIMETER LGTS.
Latitude: 39-43.253333N
Longitude: 074-16.985833W
Elevation: 55.0 ft.
Traffic pattern: leftleft
Obstructions: bldg
60' TOWER - LGTD, 150' EAST; PLINE - MRKD, NORTH AS WELL AS TREELINE.

Heliport Ownership and Management from official FAA records

Ownership: Privately-owned
Owner: SOUTHERN OCEAN MEDICAL CENTER
1140 W. BAY AVENUE
MANAHAWKIN, NJ 08050
Phone 609-597-6011
Manager: STEVE LITTLESON
1140 WEST BAY AVE
MANAHAWKIN, NJ 08050
Phone 609-597-6011
PATRICK GILDNER 609-978-8915

Instrument Procedures

There are no published instrument procedures at NJ89.

Some nearby airports with instrument procedures:

31E - Eagles Nest Airport (4 nm S)
KMJX - Ocean County Airport (12 nm N)
KNEL - Lakehurst Maxfield Field Airport (19 nm N)
KACY - Atlantic City International Airport (21 nm SW)
N12 - Lakewood Airport (21 nm N)
 
Loc | Ops | Rwys | IFR | FBO | Links
Com | Nav | Svcs | Stats | Notes


 
Area around NJ89 (Southern Ocean Medical Center Heliport)
 
Road maps at: MapQuest Bing Google
 
Aerial photo
No photo
 
Sectional chart

 
Airport distance calculator
Flying to Southern Ocean Medical Center Heliport? Find the distance to fly.

From to NJ89

Sunrise and sunset
Times for 17-Jul-2018
 Local
(UTC-4)
 Zulu
(UTC)
Morning civil twilight05:1309:13
Sunrise05:4409:44
Sunset20:2200:22
Evening civil twilight20:5400:54

Current date and time
Zulu (UTC)  18-Jul-2018 00:01:03
Local (UTC-4)  17-Jul-2018 20:01:03
 
METAR
KMJX 
12nm N 
AWOS-3 119.875 732-244-4450
172341Z AUTO 13004KT 10SM -RA SCT003 BKN031 OVC038 22/21 A2985 RMK AO2 LTG DSNT SE P0008
KNEL 
18nm N 
172331Z 10SM BKN004 BKN035 OVC043 A2984 RMK AO2 PNO
KACY 
21nm SW 
172354Z 07007KT 8SM BKN004 BKN043 OVC075 24/23 A2983 RMK AO2 LTG DSNT SW RAE35 SLP101 P0015 60075 T02390233 10328 20239 50001
KWRI 
22nm NW 
172321Z AUTO 11006KT 10SM SCT004 BKN130 22/22 A2981 RMK AO2 SLP093 $
TAF
KACY 
21nm SW 
171725Z 1718/1818 22012G22KT P6SM SCT040 TEMPO 1720/1724 3SM TSRA BKN040CB FM180200 27008KT P6SM VCSH BKN040 FM180400 34007KT P6SM SCT050 FM181500 33012KT P6SM FEW050
KWRI 
22nm NW 
171839Z 1718/1824 22012KT 9999 FEW020 SCT250 QNH2972INS TEMPO 1718/1719 23015G25KT BECMG 1718/1719 21012KT 8000 -SHRA BKN020 QNH2970INS TEMPO 1719/1801 24015G25KT 3200 TSRA BR FEW005 BKN015CB OVC020 BECMG 1802/1803 34006KT 6000 BR BKN010 OVC030 QNH2975INS BECMG 1807/1808 34009KT 9999 NSW FEW050 QNH2978INS TX36/1720Z TN21/1809Z
NOTAMs
Click for the latest NOTAMs
NOTAMs are issued by the DoD/FAA and will open in a separate window not controlled by AirNav.

 

 
 

Would you like to see your business listed on this page?

 If your business provides an interesting product or service to pilots, flight crews, aircraft, or users of the Southern Ocean Medical Center Heliport, you should consider listing it here.  To start the listing process, click on the button below
 
Add a business
 

Other Pages about Southern Ocean Medical Center Heliport

Update a link
 
Copyright © AirNav, LLC. All rights reserved. Privacy Policy  Contact